QPF
0.00 0.01 0.02 0.03 0.02 0.01 0.01 0.02 0.02 0.02 0.02 0.03 0.02 0.02 0.02 0.02 0.02 0.02 0.02 0.02 0.02 0.03 0.03 0.02 0.03 0.04 0.02 0.01 0.01 0.01 0.00 0.01 0.01 0.00 0.00 0.00 0.00 0.00 0.00 0.00 0.01 0.01 0.01
0.00 0.01 0.03 0.03 0.02 0.01 0.01 0.01 0.01 0.02 0.02 0.03 0.03 0.02 0.02 0.02 0.02 0.02 0.02 0.02 0.02 0.02 0.03 0.03 0.03 0.05 0.03 0.01 0.01 0.01 0.00 0.01 0.01 0.00 0.00 0.00 0.01 0.01 0.01 0.00 0.00 0.00 0.00
0.00 0.01 0.03 0.03 0.02 0.01 0.01 0.01 0.01 0.01 0.02 0.03 0.04 0.03 0.02 0.03 0.03 0.02 0.01 0.01 0.01 0.01 0.02 0.03 0.03 0.04 0.02 0.01 0.01 0.01 0.01 0.00 0.00 0.00 0.00 0.01 0.02 0.02 0.01 0.01 0.01 0.01 0.00
0.00 0.01 0.02 0.03 0.03 0.02 0.01 0.01 0.01 0.01 0.02 0.03 0.04 0.02 0.03 0.03 0.03 0.02 0.01 0.01 0.01 0.01 0.01 0.01 0.02 0.03 0.02 0.01 0.01 0.01 0.01 0.00 0.00 0.00 0.00 0.01 0.01 0.02 0.02 0.02 0.02 0.02 0.02
0.01 0.01 0.03 0.04 0.04 0.03 0.02 0.01 0.01 0.01 0.02 0.03 0.03 0.02 0.03 0.03 0.02 0.02 0.02 0.01 0.01 0.01 0.01 0.01 0.02 0.02 0.01 0.01 0.00 0.00 0.00 0.00 0.00 0.00 0.00 0.00 0.02 0.03 0.02 0.02 0.02 0.03 0.02
0.01 0.02 0.04 0.06 0.05 0.05 0.03 0.02 0.02 0.01 0.02 0.02 0.02 0.01 0.02 0.02 0.02 0.02 0.02 0.01 0.01 0.01 0.02 0.01 0.01 0.02 0.01 0.01 0.00 0.00 0.01 0.00 0.00 0.00 0.00 0.00 0.02 0.03 0.02 0.02 0.02 0.02 0.01
0.01 0.02 0.04 0.07 0.07 0.08 0.07 0.06 0.05 0.04 0.03 0.02 0.01 0.01 0.01 0.01 0.02 0.02 0.01 0.01 0.01 0.02 0.02 0.01 0.01 0.01 0.01 0.01 0.01 0.00 0.00 0.00 0.00 0.00 0.00 0.01 0.02 0.03 0.03 0.02 0.01 0.01 0.01
0.01 0.01 0.04 0.06 0.07 0.09 0.10 0.09 0.07 0.05 0.04 0.02 0.01 0.01 0.01 0.01 0.01 0.01 0.01 0.01 0.02 0.02 0.02 0.01 0.01 0.01 0.02 0.02 0.01 0.00 0.00 0.00 0.00 0.00 0.00 0.01 0.02 0.03 0.02 0.01 0.01 0.01 0.01
0.02 0.01 0.03 0.06 0.08 0.09 0.10 0.08 0.07 0.06 0.05 0.03 0.02 0.01 0.01 0.01 0.01 0.01 0.01 0.01 0.02 0.03 0.02 0.01 0.01 0.01 0.01 0.01 0.01 0.00 0.00 0.00 0.00 0.00 0.00 0.01 0.02 0.03 0.02 0.01 0.01 0.01 0.01
0.02 0.02 0.02 0.04 0.06 0.09 0.09 0.07 0.07 0.06 0.06 0.06 0.04 0.02 0.01 0.01 0.01 0.01 0.01 0.01 0.01 0.01 0.02 0.01 0.01 0.01 0.01 0.01 0.01 0.00 0.00 0.00 0.00 0.00 0.00 0.01 0.01 0.02 0.01 0.01 0.01 0.01 0.01
0.02 0.02 0.02 0.03 0.05 0.08 0.10 0.08 0.07 0.06 0.06 0.05 0.05 0.04 0.03 0.02 0.01 0.01 0.00 0.00 0.00 0.01 0.02 0.02 0.01 0.01 0.01 0.01 0.01 0.01 0.01 0.00 0.01 0.01 0.01 0.01 0.01 0.02 0.01 0.01 0.01 0.01 0.01
0.02 0.02 0.01 0.02 0.03 0.06 0.09 0.11 0.09 0.07 0.06 0.04 0.03 0.03 0.03 0.02 0.01 0.00 0.00 0.01 0.01 0.01 0.01 0.02 0.02 0.01 0.01 0.01 0.00 0.00 0.01 0.01 0.01 0.01 0.01 0.01 0.02 0.02 0.02 0.01 0.01 0.02 0.01
0.02 0.02 0.02 0.02 0.02 0.03 0.06 0.10 0.11 0.07 0.05 0.04 0.03 0.03 0.03 0.03 0.02 0.00 0.00 0.00 0.01 0.01 0.02 0.02 0.02 0.02 0.01 0.00 0.00 0.00 0.00 0.01 0.01 0.01 0.01 0.01 0.02 0.02 0.02 0.02 0.02 0.02 0.02
0.01 0.03 0.02 0.02 0.03 0.04 0.06 0.09 0.11 0.08 0.06 0.05 0.04 0.03 0.03 0.03 0.02 0.00 0.00 0.00 0.01 0.01 0.01 0.02 0.02 0.02 0.02 0.01 0.00 0.00 0.00 0.00 0.01 0.02 0.02 0.01 0.02 0.02 0.02 0.02 0.02 0.02 0.02
0.01 0.02 0.03 0.04 0.05 0.05 0.07 0.10 0.11 0.10 0.07 0.06 0.04 0.03 0.02 0.01 0.01 0.01 0.00 0.00 0.00 0.01 0.01 0.02 0.02 0.02 0.02 0.02 0.01 0.01 0.00 0.00 0.00 0.01 0.02 0.02 0.01 0.02 0.02 0.02 0.02 0.02 0.02
0.01 0.01 0.02 0.04 0.05 0.06 0.07 0.10 0.12 0.13 0.09 0.07 0.05 0.04 0.03 0.02 0.01 0.01 0.01 0.01 0.00 0.01 0.01 0.01 0.02 0.02 0.02 0.02 0.02 0.01 0.01 0.00 0.00 0.01 0.01 0.02 0.01 0.01 0.02 0.02 0.02 0.02 0.02
0.01 0.01 0.01 0.04 0.06 0.04 0.06 0.11 0.13 0.15 0.12 0.08 0.05 0.04 0.04 0.02 0.01 0.01 0.00 0.00 0.00 0.01 0.01 0.02 0.02 0.03 0.02 0.02 0.02 0.01 0.01 0.01 0.00 0.01 0.01 0.01 0.01 0.01 0.01 0.02 0.02 0.02 0.02
0.01 0.01 0.01 0.03 0.06 0.05 0.04 0.09 0.12 0.13 0.13 0.10 0.07 0.04 0.05 0.04 0.02 0.01 0.01 0.00 0.00 0.01 0.01 0.01 0.02 0.03 0.03 0.02 0.03 0.02 0.02 0.01 0.01 0.01 0.01 0.01 0.01 0.01 0.01 0.01 0.02 0.02 0.01
0.00 0.01 0.01 0.02 0.03 0.05 0.05 0.07 0.10 0.09 0.10 0.09 0.08 0.05 0.04 0.05 0.04 0.02 0.01 0.00 0.00 0.00 0.01 0.01 0.02 0.02 0.02 0.02 0.03 0.03 0.03 0.02 0.01 0.01 0.01 0.02 0.01 0.01 0.01 0.01 0.02 0.02 0.02
0.00 0.01 0.02 0.02 0.03 0.04 0.04 0.05 0.08 0.08 0.06 0.06 0.06 0.04 0.03 0.04 0.04 0.03 0.02 0.01 0.00 0.00 0.01 0.01 0.02 0.02 0.03 0.03 0.03 0.04 0.04 0.03 0.02 0.01 0.01 0.02 0.02 0.02 0.02 0.01 0.02 0.03 0.03
0.00 0.02 0.02 0.02 0.02 0.03 0.04 0.04 0.04 0.05 0.05 0.04 0.03 0.02 0.01 0.01 0.02 0.02 0.02 0.01 0.00 0.00 0.01 0.01 0.01 0.02 0.02 0.03 0.03 0.04 0.04 0.04 0.03 0.02 0.01 0.01 0.01 0.01 0.02 0.02 0.03 0.03 0.04
0.00 0.01 0.02 0.02 0.02 0.02 0.03 0.03 0.02 0.03 0.03 0.02 0.02 0.01 0.01 0.01 0.01 0.01 0.01 0.01 0.01 0.01 0.01 0.01 0.01 0.01 0.02 0.02 0.03 0.04 0.05 0.06 0.04 0.03 0.02 0.01 0.01 0.01 0.01 0.02 0.02 0.03 0.03
0.00 0.01 0.03 0.02 0.02 0.03 0.04 0.03 0.02 0.02 0.02 0.02 0.01 0.01 0.00 0.00 0.01 0.01 0.01 0.01 0.01 0.01 0.01 0.01 0.01 0.01 0.02 0.02 0.02 0.04 0.05 0.05 0.05 0.04 0.03 0.02 0.02 0.02 0.02 0.02 0.03 0.03 0.02
0.00 0.01 0.02 0.02 0.03 0.02 0.03 0.03 0.02 0.02 0.02 0.01 0.01 0.01 0.00 0.00 0.01 0.01 0.01 0.01 0.01 0.01 0.01 0.01 0.01 0.01 0.01 0.03 0.03 0.04 0.04 0.04 0.04 0.05 0.05 0.04 0.03 0.03 0.03 0.03 0.03 0.03 0.03
0.00 0.01 0.01 0.02 0.03 0.02 0.02 0.03 0.03 0.02 0.02 0.01 0.01 0.00 0.00 0.00 0.01 0.01 0.01 0.01 0.01 0.01 0.00 0.00 0.00 0.00 0.01 0.02 0.04 0.05 0.05 0.05 0.05 0.05 0.06 0.05 0.05 0.04 0.04 0.04 0.04 0.03 0.03
0.01 0.01 0.01 0.02 0.03 0.03 0.02 0.03 0.03 0.02 0.02 0.01 0.01 0.01 0.01 0.00 0.01 0.01 0.01 0.01 0.01 0.00 0.00 0.00 0.00 0.00 0.00 0.01 0.03 0.06 0.07 0.06 0.06 0.06 0.06 0.05 0.06 0.06 0.05 0.04 0.04 0.03 0.03
MSLP
1012.74 1012.67 1012.78 1013.06 1013.47 1013.94 1014.40 1014.79 1015.09 1015.29 1015.42 1015.53 1015.66 1015.85 1016.10 1016.39 1016.70 1016.98 1017.19 1017.31 1017.34 1017.30 1017.25 1017.21 1017.22 1017.29 1017.42 1017.59 1017.76 1017.92 1018.03 1018.09 1018.11 1018.11 1018.09 1018.08 1018.07 1018.06 1018.05 1018.03 1017.99 1017.94 1017.89
1012.65 1012.60 1012.72 1013.02 1013.46 1013.96 1014.47 1014.91 1015.25 1015.49 1015.65 1015.78 1015.91 1016.09 1016.33 1016.61 1016.91 1017.18 1017.38 1017.50 1017.54 1017.52 1017.47 1017.44 1017.46 1017.54 1017.67 1017.83 1017.99 1018.14 1018.24 1018.30 1018.33 1018.34 1018.35 1018.36 1018.38 1018.40 1018.41 1018.41 1018.37 1018.32 1018.25
1012.47 1012.42 1012.56 1012.88 1013.35 1013.89 1014.44 1014.94 1015.34 1015.64 1015.85 1016.00 1016.15 1016.32 1016.53 1016.78 1017.04 1017.28 1017.46 1017.58 1017.63 1017.63 1017.62 1017.62 1017.66 1017.75 1017.88 1018.04 1018.18 1018.31 1018.39 1018.44 1018.47 1018.49 1018.52 1018.56 1018.62 1018.67 1018.72 1018.74 1018.73 1018.69 1018.62
1012.24 1012.21 1012.35 1012.67 1013.15 1013.71 1014.31 1014.86 1015.33 1015.69 1015.96 1016.16 1016.33 1016.50 1016.69 1016.90 1017.11 1017.31 1017.47 1017.58 1017.64 1017.68 1017.70 1017.75 1017.83 1017.95 1018.10 1018.24 1018.37 1018.47 1018.53 1018.56 1018.58 1018.60 1018.65 1018.72 1018.82 1018.91 1019.00 1019.06 1019.08 1019.07 1019.03
1012.03 1011.99 1012.12 1012.43 1012.90 1013.46 1014.07 1014.66 1015.19 1015.63 1015.96 1016.22 1016.43 1016.61 1016.79 1016.97 1017.14 1017.30 1017.44 1017.54 1017.63 1017.70 1017.78 1017.89 1018.02 1018.17 1018.33 1018.47 1018.58 1018.66 1018.69 1018.70 1018.71 1018.74 1018.81 1018.91 1019.04 1019.18 1019.31 1019.41 1019.47 1019.49 1019.48
1011.91 1011.86 1011.96 1012.23 1012.65 1013.18 1013.77 1014.38 1014.94 1015.44 1015.85 1016.18 1016.45 1016.67 1016.86 1017.02 1017.17 1017.30 1017.42 1017.53 1017.64 1017.76 1017.89 1018.06 1018.24 1018.43 1018.61 1018.75 1018.86 1018.91 1018.93 1018.93 1018.94 1018.97 1019.05 1019.18 1019.34 1019.51 1019.68 1019.81 1019.91 1019.96 1019.97
1011.90 1011.83 1011.89 1012.09 1012.44 1012.91 1013.45 1014.04 1014.62 1015.17 1015.65 1016.06 1016.40 1016.68 1016.90 1017.08 1017.22 1017.35 1017.46 1017.58 1017.71 1017.87 1018.06 1018.28 1018.51 1018.74 1018.94 1019.10 1019.20 1019.25 1019.26 1019.25 1019.27 1019.32 1019.42 1019.57 1019.76 1019.96 1020.15 1020.30 1020.42 1020.48 1020.51
1012.02 1011.94 1011.94 1012.07 1012.33 1012.70 1013.17 1013.71 1014.29 1014.87 1015.41 1015.90 1016.31 1016.66 1016.93 1017.14 1017.31 1017.44 1017.56 1017.70 1017.86 1018.05 1018.28 1018.55 1018.82 1019.08 1019.31 1019.48 1019.58 1019.64 1019.66 1019.67 1019.70 1019.78 1019.91 1020.08 1020.29 1020.51 1020.71 1020.87 1020.98 1021.05 1021.08
1012.24 1012.15 1012.12 1012.17 1012.32 1012.59 1012.98 1013.45 1014.00 1014.59 1015.17 1015.72 1016.21 1016.63 1016.96 1017.22 1017.42 1017.57 1017.71 1017.86 1018.05 1018.27 1018.54 1018.84 1019.14 1019.43 1019.68 1019.87 1019.99 1020.06 1020.10 1020.14 1020.21 1020.31 1020.47 1020.67 1020.90 1021.12 1021.32 1021.48 1021.58 1021.63 1021.65
1012.49 1012.41 1012.35 1012.35 1012.42 1012.59 1012.89 1013.29 1013.80 1014.37 1014.98 1015.58 1016.12 1016.60 1016.99 1017.30 1017.53 1017.71 1017.87 1018.04 1018.25 1018.50 1018.79 1019.11 1019.45 1019.76 1020.02 1020.23 1020.38 1020.48 1020.55 1020.62 1020.73 1020.87 1021.06 1021.28 1021.51 1021.74 1021.93 1022.07 1022.16 1022.19 1022.18
1012.70 1012.65 1012.60 1012.56 1012.58 1012.68 1012.90 1013.24 1013.70 1014.25 1014.85 1015.47 1016.05 1016.57 1017.00 1017.34 1017.60 1017.81 1017.99 1018.19 1018.42 1018.69 1019.00 1019.35 1019.70 1020.03 1020.32 1020.55 1020.72 1020.86 1020.97 1021.08 1021.22 1021.39 1021.61 1021.84 1022.08 1022.31 1022.49 1022.61 1022.68 1022.69 1022.66
1012.78 1012.79 1012.77 1012.74 1012.74 1012.80 1012.98 1013.27 1013.68 1014.20 1014.79 1015.40 1015.99 1016.53 1016.98 1017.34 1017.63 1017.86 1018.06 1018.28 1018.53 1018.83 1019.17 1019.54 1019.91 1020.27 1020.58 1020.84 1021.04 1021.21 1021.35 1021.50 1021.67 1021.86 1022.09 1022.34 1022.57 1022.78 1022.95 1023.06 1023.11 1023.12 1023.09
1012.69 1012.78 1012.81 1012.82 1012.84 1012.92 1013.07 1013.34 1013.73 1014.21 1014.78 1015.37 1015.94 1016.47 1016.93 1017.30 1017.60 1017.85 1018.08 1018.33 1018.61 1018.94 1019.30 1019.70 1020.10 1020.49 1020.83 1021.12 1021.35 1021.55 1021.73 1021.90 1022.09 1022.30 1022.52 1022.76 1022.98 1023.17 1023.32 1023.42 1023.47 1023.48 1023.46
1012.41 1012.57 1012.69 1012.77 1012.85 1012.96 1013.14 1013.42 1013.79 1014.26 1014.79 1015.35 1015.90 1016.41 1016.86 1017.23 1017.55 1017.82 1018.08 1018.36 1018.67 1019.03 1019.44 1019.87 1020.31 1020.73 1021.10 1021.43 1021.70 1021.94 1022.14 1022.33 1022.52 1022.73 1022.94 1023.15 1023.34 1023.51 1023.64 1023.73 1023.78 1023.80 1023.80
1011.95 1012.19 1012.39 1012.57 1012.73 1012.92 1013.16 1013.46 1013.85 1014.31 1014.82 1015.35 1015.88 1016.37 1016.80 1017.18 1017.50 1017.80 1018.10 1018.41 1018.76 1019.17 1019.61 1020.08 1020.55 1021.01 1021.43 1021.80 1022.12 1022.38 1022.61 1022.82 1023.01 1023.20 1023.38 1023.56 1023.71 1023.85 1023.95 1024.02 1024.07 1024.11 1024.14
1011.35 1011.66 1011.96 1012.23 1012.50 1012.78 1013.09 1013.46 1013.88 1014.35 1014.85 1015.37 1015.88 1016.35 1016.78 1017.17 1017.51 1017.84 1018.17 1018.52 1018.91 1019.35 1019.83 1020.34 1020.85 1021.35 1021.82 1022.23 1022.59 1022.90 1023.16 1023.38 1023.57 1023.74 1023.90 1024.03 1024.15 1024.24 1024.32 1024.37 1024.41 1024.45 1024.50
1010.68 1011.06 1011.43 1011.81 1012.18 1012.56 1012.97 1013.41 1013.87 1014.37 1014.89 1015.40 1015.91 1016.38 1016.82 1017.22 1017.60 1017.96 1018.32 1018.71 1019.13 1019.60 1020.10 1020.63 1021.17 1021.71 1022.22 1022.68 1023.09 1023.44 1023.74 1023.99 1024.19 1024.35 1024.49 1024.59 1024.67 1024.73 1024.77 1024.80 1024.82 1024.86 1024.90
1009.99 1010.42 1010.88 1011.34 1011.82 1012.31 1012.81 1013.32 1013.85 1014.38 1014.92 1015.45 1015.96 1016.45 1016.91 1017.34 1017.75 1018.14 1018.54 1018.96 1019.40 1019.87 1020.38 1020.92 1021.47 1022.03 1022.57 1023.08 1023.54 1023.95 1024.29 1024.58 1024.80 1024.98 1025.11 1025.20 1025.26 1025.30 1025.31 1025.32 1025.32 1025.32 1025.34
1009.34 1009.82 1010.34 1010.89 1011.46 1012.05 1012.64 1013.23 1013.81 1014.38 1014.94 1015.49 1016.02 1016.53 1017.02 1017.48 1017.93 1018.36 1018.78 1019.21 1019.66 1020.12 1020.62 1021.14 1021.70 1022.26 1022.82 1023.36 1023.87 1024.33 1024.73 1025.06 1025.33 1025.54 1025.69 1025.80 1025.86 1025.89 1025.90 1025.89 1025.86 1025.84 1025.83
1008.73 1009.25 1009.84 1010.47 1011.13 1011.80 1012.47 1013.12 1013.75 1014.36 1014.94 1015.51 1016.05 1016.58 1017.10 1017.60 1018.08 1018.54 1018.99 1019.43 1019.86 1020.31 1020.78 1021.27 1021.79 1022.34 1022.91 1023.47 1024.01 1024.52 1024.97 1025.37 1025.69 1025.95 1026.15 1026.29 1026.38 1026.44 1026.46 1026.45 1026.42 1026.38 1026.34
1008.18 1008.74 1009.38 1010.09 1010.82 1011.57 1012.30 1013.00 1013.67 1014.30 1014.89 1015.46 1016.01 1016.56 1017.10 1017.63 1018.15 1018.64 1019.11 1019.55 1019.97 1020.39 1020.82 1021.27 1021.76 1022.28 1022.82 1023.39 1023.95 1024.49 1024.99 1025.43 1025.82 1026.14 1026.39 1026.59 1026.74 1026.85 1026.91 1026.94 1026.93 1026.89 1026.82
1007.67 1008.27 1008.97 1009.73 1010.53 1011.33 1012.11 1012.85 1013.54 1014.17 1014.75 1015.32 1015.87 1016.42 1016.98 1017.54 1018.08 1018.61 1019.10 1019.55 1019.97 1020.36 1020.76 1021.16 1021.60 1022.08 1022.60 1023.14 1023.70 1024.25 1024.78 1025.26 1025.68 1026.06 1026.38 1026.65 1026.87 1027.05 1027.19 1027.28 1027.32 1027.31 1027.26
1007.19 1007.83 1008.56 1009.37 1010.22 1011.07 1011.88 1012.64 1013.32 1013.94 1014.51 1015.05 1015.59 1016.14 1016.71 1017.29 1017.86 1018.42 1018.94 1019.42 1019.84 1020.23 1020.61 1020.98 1021.38 1021.82 1022.29 1022.80 1023.33 1023.87 1024.38 1024.87 1025.32 1025.73 1026.10 1026.43 1026.74 1027.01 1027.24 1027.42 1027.55 1027.61 1027.61
1006.75 1007.40 1008.16 1008.99 1009.87 1010.74 1011.58 1012.34 1013.02 1013.62 1014.16 1014.67 1015.19 1015.73 1016.30 1016.90 1017.50 1018.10 1018.67 1019.18 1019.63 1020.04 1020.41 1020.78 1021.15 1021.54 1021.98 1022.44 1022.93 1023.42 1023.90 1024.36 1024.80 1025.21 1025.61 1025.99 1026.36 1026.72 1027.05 1027.35 1027.58 1027.74 1027.83
1006.37 1007.00 1007.74 1008.58 1009.47 1010.35 1011.19 1011.95 1012.62 1013.20 1013.71 1014.19 1014.69 1015.21 1015.78 1016.40 1017.05 1017.69 1018.30 1018.87 1019.37 1019.81 1020.21 1020.58 1020.94 1021.31 1021.71 1022.13 1022.55 1022.99 1023.41 1023.82 1024.21 1024.60 1024.99 1025.39 1025.81 1026.24 1026.67 1027.08 1027.43 1027.71 1027.91
1006.06 1006.63 1007.34 1008.15 1009.02 1009.89 1010.73 1011.48 1012.14 1012.70 1013.19 1013.66 1014.13 1014.65 1015.22 1015.86 1016.53 1017.22 1017.89 1018.51 1019.07 1019.56 1020.00 1020.39 1020.76 1021.13 1021.50 1021.88 1022.26 1022.62 1022.98 1023.32 1023.65 1023.98 1024.34 1024.74 1025.18 1025.65 1026.15 1026.66 1027.13 1027.53 1027.85
Thickness
5727 5726 5723 5722 5721 5721 5721 5721 5721 5721 5721 5721 5721 5721 5721 5720 5720 5719 5719 5719 5719 5719 5719 5719 5719 5719 5718 5718 5718 5718 5718 5718 5718 5717 5717 5717 5717 5717 5716 5716 5717 5717 5715
5725 5723 5720 5719 5718 5718 5717 5717 5717 5717 5717 5717 5717 5717 5717 5717 5717 5716 5716 5716 5716 5716 5715 5715 5715 5715 5715 5715 5715 5714 5714 5714 5714 5714 5714 5714 5714 5713 5713 5713 5714 5714 5712
5721 5719 5716 5715 5715 5714 5714 5713 5713 5713 5713 5714 5714 5714 5714 5714 5713 5713 5713 5713 5713 5712 5712 5712 5711 5711 5711 5711 5711 5711 5711 5710 5710 5711 5712 5713 5711 5710 5710 5709 5709 5709 5709
5716 5715 5713 5711 5710 5710 5710 5709 5709 5709 5710 5710 5710 5710 5710 5710 5710 5709 5709 5709 5709 5709 5708 5708 5708 5708 5707 5707 5707 5707 5707 5707 5707 5708 5711 5711 5709 5707 5706 5706 5706 5706 5705
5711 5710 5708 5706 5706 5705 5705 5705 5705 5705 5705 5705 5705 5706 5706 5706 5706 5705 5705 5705 5705 5705 5704 5704 5704 5704 5704 5704 5703 5703 5703 5703 5704 5706 5707 5707 5705 5703 5703 5702 5702 5701 5701
5705 5704 5702 5701 5701 5700 5700 5700 5700 5700 5700 5700 5701 5701 5701 5701 5701 5701 5700 5700 5700 5701 5700 5700 5700 5700 5700 5700 5699 5699 5699 5700 5701 5703 5703 5703 5702 5699 5698 5698 5697 5697 5696
5699 5698 5697 5695 5695 5695 5695 5695 5695 5695 5695 5695 5695 5696 5696 5696 5696 5696 5696 5696 5696 5696 5696 5696 5696 5695 5695 5695 5695 5695 5695 5696 5699 5699 5699 5698 5697 5695 5694 5693 5693 5692 5692
5692 5692 5691 5689 5689 5689 5689 5689 5689 5689 5689 5689 5690 5690 5690 5690 5691 5691 5691 5691 5691 5691 5691 5691 5691 5691 5691 5691 5690 5690 5691 5692 5694 5694 5694 5693 5691 5691 5690 5689 5688 5687 5687
5684 5685 5684 5684 5683 5682 5682 5683 5683 5683 5683 5683 5683 5684 5684 5685 5685 5685 5685 5686 5686 5686 5686 5686 5686 5686 5686 5686 5685 5685 5686 5687 5690 5689 5689 5688 5686 5686 5685 5684 5683 5682 5682
5677 5678 5678 5678 5677 5677 5677 5676 5676 5676 5677 5677 5677 5677 5677 5678 5679 5679 5679 5680 5680 5681 5681 5681 5681 5681 5680 5680 5680 5680 5681 5682 5684 5684 5684 5682 5681 5680 5680 5679 5678 5678 5677
5670 5671 5671 5671 5671 5671 5671 5670 5670 5670 5670 5670 5670 5670 5671 5673 5673 5673 5673 5674 5674 5675 5675 5675 5675 5675 5675 5674 5674 5675 5676 5678 5679 5678 5677 5676 5675 5675 5674 5673 5673 5672 5671
5663 5663 5664 5665 5665 5664 5664 5664 5664 5664 5664 5664 5665 5665 5666 5667 5667 5667 5666 5667 5668 5668 5669 5669 5669 5669 5670 5670 5669 5670 5672 5673 5673 5672 5671 5670 5669 5669 5668 5667 5667 5666 5666
5658 5657 5657 5658 5657 5658 5658 5658 5658 5659 5659 5659 5659 5660 5660 5660 5660 5661 5661 5661 5662 5662 5663 5663 5664 5664 5665 5665 5665 5665 5666 5666 5666 5666 5664 5663 5663 5663 5662 5661 5661 5660 5659
5652 5651 5651 5651 5651 5651 5651 5652 5652 5653 5653 5653 5653 5654 5654 5655 5655 5656 5656 5656 5657 5657 5657 5658 5658 5659 5659 5659 5659 5660 5660 5660 5660 5659 5657 5656 5656 5656 5655 5655 5654 5654 5653
5644 5644 5644 5644 5644 5644 5645 5645 5645 5646 5646 5646 5646 5647 5648 5649 5649 5649 5650 5649 5650 5651 5651 5652 5653 5652 5653 5653 5653 5653 5653 5653 5652 5652 5650 5649 5649 5649 5649 5648 5647 5647 5647
5638 5638 5637 5637 5637 5637 5638 5638 5638 5639 5639 5639 5639 5640 5640 5641 5642 5642 5642 5642 5643 5643 5644 5645 5646 5645 5645 5645 5645 5645 5644 5644 5644 5644 5643 5642 5641 5641 5641 5640 5640 5640 5639
5632 5631 5630 5630 5629 5630 5630 5631 5630 5630 5631 5632 5631 5632 5633 5633 5634 5634 5635 5635 5635 5635 5636 5637 5637 5637 5637 5636 5636 5636 5636 5636 5635 5636 5635 5635 5634 5633 5633 5632 5632 5632 5631
5624 5624 5623 5622 5622 5622 5622 5622 5622 5622 5623 5624 5623 5624 5624 5625 5625 5626 5627 5627 5627 5627 5627 5628 5629 5629 5628 5628 5628 5627 5626 5626 5626 5626 5627 5626 5626 5625 5625 5624 5623 5623 5623
5617 5616 5615 5615 5613 5613 5613 5613 5613 5613 5614 5615 5616 5615 5616 5616 5617 5619 5619 5619 5619 5619 5619 5619 5620 5620 5619 5618 5617 5617 5616 5616 5616 5617 5618 5617 5617 5616 5616 5616 5615 5615 5615
5609 5609 5608 5607 5606 5605 5605 5605 5605 5604 5605 5606 5607 5607 5608 5609 5609 5610 5611 5610 5610 5610 5610 5610 5610 5610 5610 5608 5607 5606 5606 5606 5606 5607 5608 5608 5608 5607 5608 5608 5607 5606 5606
5601 5600 5600 5600 5599 5598 5598 5598 5598 5598 5597 5598 5599 5599 5600 5601 5601 5602 5602 5602 5602 5602 5602 5602 5600 5600 5599 5598 5598 5596 5596 5596 5596 5597 5598 5599 5599 5598 5598 5598 5599 5598 5598
5593 5593 5592 5592 5592 5592 5592 5592 5592 5591 5590 5591 5591 5591 5591 5592 5593 5594 5594 5594 5594 5593 5593 5592 5591 5590 5589 5588 5590 5590 5589 5588 5587 5587 5588 5588 5589 5588 5589 5589 5589 5589 5589
5586 5585 5586 5586 5585 5585 5584 5584 5583 5582 5582 5582 5582 5583 5583 5584 5585 5585 5586 5586 5585 5585 5584 5583 5582 5582 5581 5579 5580 5583 5584 5586 5582 5579 5579 5579 5579 5579 5579 5579 5579 5579 5579
5578 5578 5578 5578 5577 5577 5577 5577 5578 5579 5579 5578 5577 5576 5576 5576 5577 5577 5577 5577 5576 5575 5574 5574 5573 5573 5572 5571 5569 5570 5572 5575 5575 5573 5571 5570 5569 5569 5569 5569 5569 5569 5569
5569 5569 5570 5570 5570 5569 5570 5571 5572 5572 5572 5570 5569 5569 5569 5569 5568 5568 5568 5568 5567 5566 5566 5564 5563 5563 5563 5563 5562 5561 5560 5561 5564 5566 5565 5562 5561 5560 5559 5559 5559 5559 5559
5560 5560 5561 5562 5562 5563 5563 5564 5565 5565 5564 5564 5563 5563 5561 5561 5560 5560 5560 5559 5558 5558 5557 5556 5555 5554 5553 5552 5553 5553 5553 5554 5555 5556 5556 5555 5554 5552 5550 5550 5550 5549 5548